Location: Arroyo de Valdeoliva
(40.1604°N, 4.9878°W)
Time: 12:33:09
(UTC+00:00)

ARIANE 6 FM1 Upper Stage - Pass Details

Date: 16 February 2026
Orbit: 523 x 607 km, 62.0° (Epoch: 8 March)

Event Time Altitude Azimuth Distance (km) Brightness Sun altitude
Rises 20:55:17 0° 310° (NW) 2,657 6.9 -34.6°
Reaches altitude 10° 20:57:48 10° 295° (WNW) 1,769 6.0 -35.0°
Enters shadow 20:58:27 13° 289° (WNW) 1,569 5.6 -35.1°
